Regional Weather Roundup
Issued by NWS State College, PA

Home | Current Version | Previous Version | Text Only | Print | Product List | Glossary Off
Versions: 1 2 3 4 5 6 7 8 9 10 11 12 13 14 15 16 17 18 19 20 21 22 23 24 25 26 27 28 29 30 31 32 33 34 35 36 37 38 39 40 41 42 43 44 45 46 47 48 49 50

000
ASUS41 KCTP 302203
RWRCTP

REGIONAL WEATHER ROUNDUP
NATIONAL WEATHER SERVICE STATE COLLEGE PA
600 PM EDT SAT AUG 30 2014

Note: "fair" indicates few or no clouds below 12,000 feet with no
significant weather and/or obstructions to visibility.

* = STATION THAT DOES NOT REPORT PRECIPITATION /E.G. RAIN...SNOW...ETC/
    THUNDER OR FOG.

PAZ002>004-007>009-013>016-020>023-029>032-302300-
WESTERN PENNSYLVANIA

CITY           SKY/WX    TMP DP  RH WIND       PRES   REMARKS
ERIE           PTSUNNY   87  64  46 S12       29.96F
MEADVILLE      MOSUNNY   83  64  52 SW9       30.02F
FRANKLIN*      MOSUNNY   82  66  57 S10       30.06S
NEW CASTLE     FAIR      87  67  51 VRB5      30.02F
BEAVER COUNTY  NOT AVBL
BUTLER*        MOSUNNY   84  66  54 SW9       30.06S
PITTSBURGH INT PTSUNNY   86  65  49 SW12      30.03F
PITTSBURGH     MOSUNNY   86  65  49 S7        30.04F
INDIANA*       SUNNY     86  68  54 SW7       30.10F
LATROBE        MOSUNNY   86  66  51 S9        30.06F
WASHINGTON CO* MOSUNNY   84  68  58 SW6       30.05F
$$

PAZ004>006-010>012-017>019-024>028-033>037-041-042-045-046-049>053-302300-
CENTRAL PENNSYLVANIA

CITY           SKY/WX    TMP DP  RH WIND       PRES   REMARKS
BRADFORD       PTSUNNY   80  66  62 SW9       30.09F
DUBOIS         PTSUNNY   80  66  62 SW12G17   30.08F
CLEARFIELD     PTSUNNY   78  68  71 VRB3      30.10F
JOHNSTOWN      PTSUNNY   79  66  64 S9        30.13F
ALTOONA        PTSUNNY   77  69  76 SE8       30.12F
STATE COLLEGE  MOSUNNY   75  68  78 S3        30.12F
WILLIAMSPORT   CLOUDY    74  64  71 VRB6      30.11F
SELINSGROVE    PTSUNNY   76  66  71 S5        30.13F
FT INDIANTOWN  CLOUDY    76  67  71 SE5       30.14F
CAPITAL CITY   CLOUDY    78  67  68 SE5       30.12F
HARRISBURG     CLOUDY    78  69  73 SE3       30.12F
YORK           CLOUDY    79  68  69 SE6       30.13F
$$

PAZ038>040-043-044-047-048-054-055-060>062-067>071-302300-
EASTERN PENNSYLVANIA

CITY           SKY/WX    TMP DP  RH WIND       PRES   REMARKS
SCRANTON       CLOUDY    74  62  66 S7        30.15F
MOUNT POCONO   CLOUDY    68  60  75 S6        30.21S
ALLENTOWN      CLOUDY    77  62  59 S8        30.16F
QUAKERTOWN*    CLOUDY    75  64  69 MISG      30.17F
READING        CLOUDY    79  61  53 S8        30.14F
LANCASTER      CLOUDY    77  62  59 S8        30.15S
COATESVILLE    CLOUDY    73  66  78 S5        30.18F
POTTSTOWN      CLOUDY    76  62  62 S5        30.17F
BLUE BELL      CLOUDY    77  63  61 S6        30.16S
DOYLESTOWN     CLOUDY    75  63  66 VRB5      30.16F
WILLOW GROVE   NOT AVBL
NORTH PHILA    PTSUNNY   79  61  53 S6        30.17F
PHILADELPHIA   PTSUNNY   78  62  57 SE7       30.16F
$$



USA.gov is the U.S. government's official web portal to all federal, state and local government web resources and services.